Sheldon, IA

10:46 PM CST on November 19, 2017 (GMT -0600)
Sheldon Municipal

Weather History for KSHL - January, 2014

Change the Weather History Date:

Thursday, January 30, 2014

  Actual Average Record
Temperature  
Mean Temperature 18 °F -  
Max Temperature 37 °F 27 °F 54 °F (1964)
Min Temperature 0 °F 7 °F -20 °F (1966)
Degree Days  
Heating Degree Days 46    
Moisture  
Dew Point 8 °F    
Average Humidity 71    
Maximum Humidity 100    
Minimum Humidity 36    
Precipitation  
Precipitation 0.00 in - - ()
Sea Level Pressure  
Sea Level Pressure 29.69 in    
Wind  
Wind Speed 17 mph (NW)    
Max Wind Speed 28 mph    
Max Gust Speed 37 mph    
Visibility 7 miles    
Events Rain , Snow    
Averages and records for this station are not official NWS values.
T = Trace of Precipitation, MM = Missing Value Source: NWS Daily Summary

Daily Weather History Graph

Daily Weather History Graph

Search for Another Location

Airport or City:

Trip Planner

Search our weather history database for the weather conditions in past years. The results will help you decide how hot, cold, wet, or windy it might be!

Date:

Astronomy

Jan. 30, 2014 Rise Set
Actual Time 7:40 AM CST 5:32 PM CST
Civil Twilight 7:10 AM CST 6:03 PM CST
Nautical Twilight 6:36 AM CST 6:37 PM CST
Astronomical Twilight 6:02 AM CST 7:11 PM CST
Moon 7:06 AM CST (1/30) 5:47 PM CST (1/30)
Length of Visible Light 10h 52m
Length of Day
9h 52m
Waning Crescent, 0% of the Moon is Illuminated
Jan 30
Waning Crescent
Jan 30
New
Feb 6
First Quarter
Feb 14
Full
Feb 22
Last Quarter

Hourly Weather History & Observations

Time (CST) Temp. Windchill Dew Point Humidity Pressure Visibility Wind Dir Wind Speed Gust Speed Precip Events Conditions
12:15 AM 33.8 °F 25.8 °F 12.2 °F 41% 29.47 in 10.0 mi SSW 10.4 mph 17.3 mph N/A   Overcast
12:35 AM 35.6 °F 26.6 °F 12.2 °F 38% 29.45 in 10.0 mi South 13.8 mph 20.7 mph N/A   Overcast
12:55 AM 33.8 °F 22.8 °F 12.2 °F 41% 29.43 in 10.0 mi South 18.4 mph - N/A   Overcast
1:15 AM 35.6 °F 27.1 °F 14.0 °F 41% 29.42 in 10.0 mi South 12.7 mph 20.7 mph N/A   Overcast
1:35 AM 35.6 °F 24.8 °F 14.0 °F 41% 29.40 in 10.0 mi South 19.6 mph 27.6 mph N/A   Overcast
1:55 AM 35.6 °F 23.7 °F 14.0 °F 41% 29.38 in 10.0 mi South 24.2 mph 33.4 mph N/A   Overcast
2:15 AM 35.6 °F 24.5 °F 14.0 °F 41% 29.35 in 10.0 mi South 20.7 mph 27.6 mph N/A   Overcast
2:35 AM 35.6 °F 25.2 °F 15.8 °F 44% 29.34 in 10.0 mi South 18.4 mph 25.3 mph N/A   Mostly Cloudy
2:55 AM 35.6 °F 24.8 °F 14.0 °F 41% 29.35 in 10.0 mi South 19.6 mph 27.6 mph N/A   Overcast
3:15 AM 35.6 °F 24.0 °F 14.0 °F 41% 29.32 in 10.0 mi South 23.0 mph 28.8 mph N/A   Overcast
3:35 AM 35.6 °F 25.5 °F 14.0 °F 41% 29.33 in 10.0 mi SSW 17.3 mph - N/A   Overcast
3:55 AM 35.6 °F 24.8 °F 12.2 °F 38% 29.33 in 10.0 mi South 19.6 mph - N/A   Overcast
4:15 AM 37.4 °F 26.6 °F 12.2 °F 36% 29.33 in 10.0 mi SSW 21.9 mph 29.9 mph N/A   Mostly Cloudy
4:35 AM 37.4 °F 27.2 °F 12.2 °F 36% 29.32 in 8.0 mi SSW 19.6 mph 27.6 mph N/A   Overcast
4:55 AM 35.6 °F 24.5 °F 19.4 °F 52% 29.33 in 4.0 mi SSW 20.7 mph 32.2 mph N/A Snow Light Snow
5:15 AM 32.0 °F 20.1 °F 28.4 °F 87% 29.33 in 0.8 mi SSW 19.6 mph 26.5 mph N/A Snow Light Snow
5:35 AM 30.2 °F 19.3 °F 28.4 °F 93% 29.34 in 0.2 mi SSW 15.0 mph 29.9 mph N/A Snow Light Snow
5:55 AM 30.2 °F 21.3 °F 30.2 °F 100% 29.34 in 0.5 mi SSW 10.4 mph - N/A Snow Light Snow
6:15 AM 30.2 °F 21.9 °F 30.2 °F 100% 29.34 in 0.8 mi SW 9.2 mph 16.1 mph N/A Snow Light Snow
6:35 AM 30.2 °F 23.4 °F 30.2 °F 100% 29.35 in 0.8 mi WSW 6.9 mph - N/A Snow Light Snow
6:55 AM 30.2 °F 22.6 °F 30.2 °F 100% 29.37 in 1.0 mi NW 8.1 mph - N/A Snow Light Snow
7:15 AM 21.2 °F 6.0 °F 19.4 °F 93% 29.39 in 0.8 mi NNE 19.6 mph - N/A Rain Light Freezing Rain
7:35 AM 21.2 °F 4.5 °F 17.6 °F 86% 29.43 in 0.5 mi North 24.2 mph 29.9 mph N/A Rain Light Freezing Rain
7:55 AM 19.4 °F 2.1 °F 15.8 °F 86% 29.45 in 0.5 mi North 24.2 mph - N/A Snow Light Snow
8:15 AM 17.6 °F -1.3 °F 14.0 °F 86% 29.46 in 0.5 mi North 27.6 mph - N/A Snow Light Snow
8:35 AM 17.6 °F -0.6 °F 14.0 °F 86% 29.50 in 2.0 mi North 25.3 mph 32.2 mph N/A Snow Light Snow
8:55 AM 17.6 °F 0.5 °F 12.2 °F 79% 29.52 in 4.0 mi North 21.9 mph 32.2 mph N/A Rain Light Freezing Rain
9:15 AM 17.6 °F -0.6 °F 12.2 °F 79% 29.55 in 3.0 mi North 25.3 mph 33.4 mph N/A Snow Light Snow
9:35 AM 17.6 °F -0.3 °F 12.2 °F 79% 29.57 in 3.0 mi North 24.2 mph 36.8 mph N/A Rain Light Freezing Rain
9:55 AM 17.6 °F -0.3 °F 12.2 °F 79% 29.62 in 5.0 mi NNW 24.2 mph - N/A   Light Freezing Rain
10:15 AM 15.8 °F -2.7 °F 12.2 °F 86% 29.65 in 3.0 mi NNW 24.2 mph 36.8 mph N/A Rain Light Freezing Rain
10:35 AM 15.8 °F -3.7 °F 10.4 °F 79% 29.67 in 2.5 mi NNW 27.6 mph - N/A Snow Light Snow
10:55 AM 15.8 °F -3.4 °F 10.4 °F 79% 29.68 in 2.0 mi NNW 26.5 mph - N/A Snow Light Snow
11:15 AM 15.8 °F -1.9 °F 10.4 °F 79% 29.70 in 4.0 mi NNW 21.9 mph 29.9 mph N/A Rain Light Freezing Rain
11:35 AM 15.8 °F -2.7 °F 10.4 °F 79% 29.72 in 5.0 mi NNW 24.2 mph 31.1 mph N/A   Light Freezing Rain
11:55 AM 15.8 °F -2.3 °F 10.4 °F 79% 29.72 in 6.0 mi NNW 23.0 mph 32.2 mph N/A Snow Light Snow
12:15 PM 15.8 °F -1.9 °F 8.6 °F 73% 29.73 in 5.0 mi NNW 21.9 mph 32.2 mph N/A   Light Freezing Rain
12:35 PM 14.0 °F -5.5 °F 8.6 °F 79% 29.74 in 7.0 mi NNW 25.3 mph 31.1 mph N/A   Mostly Cloudy
12:55 PM 14.0 °F -4.7 °F 8.6 °F 79% 29.76 in 8.0 mi NNW 23.0 mph 29.9 mph N/A Rain Light Freezing Rain
1:15 PM 14.0 °F -5.8 °F 8.6 °F 79% 29.77 in 6.0 mi NNW 26.5 mph - N/A Snow Light Snow
1:35 PM 14.0 °F -4.3 °F 6.8 °F 73% 29.79 in 10.0 mi NNW 21.9 mph 27.6 mph N/A   Overcast
1:55 PM 12.2 °F -7.1 °F 6.8 °F 79% 29.80 in 7.0 mi NNW 23.0 mph 29.9 mph N/A Rain Light Freezing Rain
2:15 PM 12.2 °F -7.1 °F 5.0 °F 73% 29.80 in 8.0 mi NNW 23.0 mph - N/A   Light Freezing Rain
2:35 PM 12.2 °F -6.7 °F 5.0 °F 73% 29.82 in 4.0 mi NNW 21.9 mph - N/A Snow Light Snow
2:55 PM 10.4 °F -8.2 °F 3.2 °F 73% 29.83 in 9.0 mi NNW 19.6 mph 27.6 mph N/A   Mostly Cloudy
3:15 PM 10.4 °F -7.2 °F 3.2 °F 73% 29.84 in 10.0 mi NNW 17.3 mph 24.2 mph N/A Rain Light Freezing Rain
3:35 PM 10.4 °F -7.2 °F 3.2 °F 73% 29.86 in 10.0 mi NNW 17.3 mph - N/A   Scattered Clouds
3:55 PM 10.4 °F -6.0 °F 3.2 °F 73% 29.86 in 9.0 mi NNW 15.0 mph 20.7 mph N/A   Light Freezing Rain
4:15 PM 10.4 °F -4.1 °F 3.2 °F 73% 29.87 in 9.0 mi North 11.5 mph - N/A Snow Light Snow
4:35 PM 8.6 °F -10.0 °F 1.4 °F 73% 29.86 in 10.0 mi North 18.4 mph - N/A   Mostly Cloudy
4:55 PM 8.6 °F -8.3 °F 1.4 °F 73% 29.88 in 10.0 mi NNW 15.0 mph - N/A   Mostly Cloudy
5:15 PM 6.8 °F -10.0 °F -0.4 °F 72% 29.90 in 10.0 mi NNW 13.8 mph - N/A   Scattered Clouds
5:35 PM 6.8 °F -8.6 °F -0.4 °F 72% 29.90 in 10.0 mi NNW 11.5 mph - N/A   Partly Cloudy
5:55 PM 5.0 °F -5.6 °F -2.2 °F 72% 29.93 in 10.0 mi NW 5.8 mph - N/A   Mostly Cloudy
6:15 PM 3.2 °F -7.8 °F -2.2 °F 78% 29.93 in 10.0 mi NW 5.8 mph - N/A   Overcast
6:35 PM 3.2 °F -7.8 °F -2.2 °F 78% 29.95 in 10.0 mi NW 5.8 mph - N/A   Scattered Clouds
6:55 PM 3.2 °F -6.2 °F -2.2 °F 78% 29.97 in 10.0 mi WNW 4.6 mph - N/A   Mostly Cloudy
7:15 PM 3.2 °F -10.3 °F -4.0 °F 72% 29.98 in 10.0 mi WNW 8.1 mph - N/A   Overcast
7:35 PM 3.2 °F -11.3 °F -4.0 °F 72% 29.99 in 10.0 mi WNW 9.2 mph - N/A   Scattered Clouds
7:55 PM -0.4 °F -14.7 °F -5.8 °F 78% 29.99 in 10.0 mi WNW 8.1 mph - N/A   Clear
8:15 PM 1.4 °F -9.9 °F -5.8 °F 72% 30.00 in 10.0 mi West 5.8 mph - N/A   Clear
8:35 PM -0.4 °F -13.4 °F -5.8 °F 78% 30.02 in 10.0 mi West 6.9 mph - N/A   Clear
8:55 PM 1.4 °F -12.5 °F -5.8 °F 72% 30.02 in 10.0 mi WNW 8.1 mph - N/A   Scattered Clouds
9:15 PM 1.4 °F -11.3 °F -5.8 °F 72% 30.03 in 10.0 mi West 6.9 mph - N/A   Scattered Clouds
9:35 PM 3.2 °F -11.3 °F -4.0 °F 72% 30.04 in 10.0 mi WNW 9.2 mph - N/A   Scattered Clouds
9:55 PM 1.4 °F -12.5 °F -5.8 °F 72% 30.04 in 10.0 mi WNW 8.1 mph - N/A   Mostly Cloudy
10:15 PM 1.4 °F -13.5 °F -4.0 °F 78% 30.05 in 10.0 mi NW 9.2 mph - N/A   Overcast
10:35 PM 1.4 °F -13.5 °F -4.0 °F 78% 30.04 in 10.0 mi WNW 9.2 mph - N/A   Mostly Cloudy
10:55 PM -0.4 °F -15.7 °F -5.8 °F 78% 30.05 in 10.0 mi NW 9.2 mph - N/A   Partly Cloudy
11:15 PM -0.4 °F -15.7 °F -5.8 °F 78% 30.05 in 10.0 mi NW 9.2 mph - N/A   Clear
11:35 PM 1.4 °F -12.5 °F -4.0 °F 78% 30.07 in 10.0 mi WNW 8.1 mph - N/A   Clear
11:55 PM -0.4 °F -16.7 °F -5.8 °F 78% 30.06 in 10.0 mi NW 10.4 mph - N/A   Clear